This is the latest recevied weather packets stored in our database for station/object N8HON. If no packets are shown the sender has not sent any weather packets the latest 10 day(s).
| Time | Temp. | Humidity | Pressure | Rain* | Wind** | Luminosity | Snow |
|---|---|---|---|---|---|---|---|
| 1777390041 | 14.44° C | 83% | 1015.3 hPa | 0 mm | - | 553 W/m² | - |
| 1777389739 | 14.44° C | 83% | 1015.3 hPa | 0 mm | - | 460 W/m² | - |
| 1777389435 | 13.89° C | 86% | 1015.5 hPa | 0 mm | - | 570 W/m² | - |
| 1777389133 | 13.89° C | 85% | 1015.3 hPa | 0 mm | - | 590 W/m² | - |
| 1777388830 | 13.33° C | 86% | 1015.7 hPa | 0 mm | - | 590 W/m² | - |
| 1777388522 | 12.22° C | 89% | 1015.6 hPa | 0 mm | - | 342 W/m² | - |
| 1777388222 | 11.67° C | 91% | 1015.9 hPa | 0 mm | - | 443 W/m² | - |
| 1777387917 | 11.67° C | 90% | 1015.8 hPa | 0 mm | - | 312 W/m² | - |
| 1777387614 | 11.67° C | 90% | 1015.7 hPa | 0 mm | - | 195 W/m² | - |
| 1777387311 | 11.11° C | 92% | 1015.9 hPa | 0 mm | - | 233 W/m² | - |
| 1777387004 | 11.11° C | 91% | 1015.9 hPa | 0 mm | - | 227 W/m² | - |
| 1777386702 | 11.67° C | 91% | 1015.9 hPa | 0 mm | - | 207 W/m² | - |
| 1777386399 | 11.11° C | 91% | 1015.9 hPa | 0 mm | - | 188 W/m² | - |
| 1777386096 | 11.11° C | 92% | 1015.9 hPa | 0 mm | - | 147 W/m² | - |
| 1777385792 | 11.11° C | 92% | 1015.9 hPa | 0 mm | - | 138 W/m² | - |
| 1777385490 | 11.11° C | 92% | 1015.9 hPa | 0 mm | - | 126 W/m² | - |
| 1777385187 | 10.56° C | 93% | 1015.9 hPa | 0 mm | - | 137 W/m² | - |
| 1777384882 | 10.56° C | 92% | 1016 hPa | 0 mm | - | 142 W/m² | - |
| 1777384581 | 10.56° C | 93% | 1016 hPa | 0 mm | - | 103 W/m² | - |
| 1777384280 | 10.56° C | 94% | 1016 hPa | 0 mm | - | 92 W/m² | - |
| 1777383975 | 10° C | 94% | 1015.9 hPa | 0 mm | - | 75 W/m² | - |
| 1777383672 | 10° C | 93% | 1015.7 hPa | 0 mm | - | 65 W/m² | - |
| 1777383369 | 10° C | 93% | 1016 hPa | 0 mm | - | 63 W/m² | - |
| 1777383065 | 10° C | 93% | 1015.7 hPa | 0 mm | - | 66 W/m² | - |
| 1777382762 | 10° C | 94% | 1015.5 hPa | 0 mm | - | 56 W/m² | - |
* Rain latest hour (hover to see other rain measurements)
** Current wind speed in m/s (hover to see current wind gust speed)